Flag for India Weather past 2 weeks in Vasai-Virar, Maharashtra, India

Now
81 °F

Broken clouds.


Feels Like: 85 °F
Forecast: 76 / 85 °F
Wind: 3 mph from Northwest

Location: Bombay / Santacruz

Current Time: Aug 27, 2014 at 6:47:51 PM

Latest Report: Aug 27, 2014 at 6:10 PM


Visibility: 2 mi

Pressure: 29.68 "Hg

Humidity: 79%

Dew point: 73 °F

Location of Vasai-VirarLocation

Historic Weather in Vasai-Virar — Graph

°F

Vasai-Virar temperature yesterday

Maximum temperature yesterday: 82 °F (at 2:40 PM)
Minimum temperature yesterday: 77 °F (at 7:40 PM)
Average temperature yesterday: 79 °F

Past Weeks' High & Low Weather Summary

 TemperatureHumidityPressure
High90 °F (Aug 23, 1:40 PM)100% (Aug 14, 6:40 PM)29.86 "Hg (Aug 14, 6:40 PM)
Low75 °F (Aug 27, 8:40 AM)66% (Aug 17, 12:40 PM)29.65 "Hg (Aug 21, 3:10 PM)
Average82 °F87%29.74 "Hg
* Reported Aug 12 4:40 PM — Aug 27 5:10 PM, Vasai-Virar, Weather by CustomWeather, © 2014

Note: Actual official high and low records may vary slightly from our data, if they occured in-between our weather recording intervals... More about our weather records

Advertising

Vasai-Virar weather history for previous 24 hours

 ConditionsComfort  
Time TempWeatherWind HumidityBarometerVisibility
5:10 PM
Aug 27
81 °FBroken clouds.8 mph79%29.68 "Hg2 mi
4:40 PM81 °FBroken clouds.7 mph84%29.68 "Hg2 mi
4:10 PM81 °FBroken clouds.10 mph84%29.68 "Hg2 mi
3:40 PM81 °FBroken clouds.10 mph84%29.68 "Hg2 mi
2:40 PM81 °FBroken clouds.3 mph89%29.71 "Hg1 mi
2:10 PM81 °FBroken clouds.3 mph89%29.71 "Hg2 mi
1:40 PM81 °FDrizzle. Broken clouds.No wind89%29.74 "Hg2 mi
12:40 PM81 °FBroken clouds.5 mph84%29.74 "Hg2 mi
12:10 PM81 °FBroken clouds.7 mph89%29.77 "Hg2 mi
11:40 AM81 °FBroken clouds.9 mph89%29.77 "Hg2 mi
11:10 AM81 °FBroken clouds.8 mph89%29.77 "Hg2 mi
10:40 AM81 °FBroken clouds.7 mph89%29.77 "Hg2 mi
9:40 AM79 °FBroken clouds.6 mph94%29.77 "Hg2 mi
9:10 AM77 °FScattered showers. Broken clouds.3 mph94%29.77 "Hg1 mi
8:40 AM75 °FLight rain. Broken clouds.3 mph94%29.77 "Hg1 mi
6:40 AM79 °FPartly cloudy.5 mph89%29.74 "Hg2 mi
6:10 AM79 °FPartly cloudy.3 mph94%29.74 "Hg2 mi
5:40 AM79 °FPartly cloudy.6 mph94%29.74 "Hg2 mi
5:10 AM77 °FPartly cloudy.6 mph100%29.74 "Hg2 mi
4:40 AM77 °FPartly cloudy.5 mph94%29.74 "Hg2 mi
4:10 AM77 °FPartly cloudy.7 mph100%29.74 "Hg2 mi
3:40 AM77 °FPartly cloudy.5 mph94%29.71 "Hg2 mi
2:40 AM77 °FPartly cloudy.No wind89%29.74 "Hg2 mi
2:10 AM77 °FPartly cloudy.No wind89%29.74 "Hg2 mi
1:40 AM77 °FPartly cloudy.No wind89%29.77 "Hg2 mi
1:10 AM77 °FPartly cloudy.No wind89%29.77 "Hg2 mi
12:40 AM77 °FPartly cloudy.5 mph89%29.77 "Hg2 mi
12:10 AM77 °FPartly cloudy.6 mph89%29.80 "Hg2 mi
11:40 PM
Aug 26
77 °FPartly cloudy.3 mph94%29.80 "Hg2 mi
10:40 PM77 °FPartly cloudy.7 mph89%29.80 "Hg2 mi
10:10 PM77 °FPartly cloudy.6 mph89%29.80 "Hg2 mi
9:40 PM77 °FPartly cloudy.6 mph94%29.80 "Hg1 mi
9:10 PM77 °FPartly cloudy.6 mph94%29.80 "Hg1 mi
8:40 PM77 °FPartly cloudy.8 mph94%29.80 "Hg1 mi
8:10 PM77 °FPartly cloudy.6 mph89%29.77 "Hg1 mi
7:40 PM77 °FLight rain. Partly cloudy.7 mph94%29.77 "Hg1 mi
7:10 PM81 °FBroken clouds.9 mph84%29.74 "Hg2 mi
6:40 PM81 °FBroken clouds.3 mph89%29.74 "Hg2 mi
6:10 PM82 °FBroken clouds.6 mph84%29.74 "Hg2 mi
Weather by CustomWeather, © 2014

See weather overviewHow to use our weather pages